| time (UTC) | temp C | wind direction | speed KPH | gust KPH | rain 1hr cm | rain 24hr cm | rain mn cm | humidity % | barometer mb |
| 20260504130337 | 13 | 205 | 9.7 | 11.3 | 0.00 | 0.00 | 0.00 | 69 | 1006.4 |
| 20260504120300 | 11 | 157 | 6.4 | 9.7 | 0.00 | 0.00 | 0.00 | 77 | 1006.7 |
| 20260504110224 | 10 | 186 | 4.8 | 4.8 | 0.00 | 0.00 | 0.00 | 77 | 1006.5 |
| 20260504100142 | 10 | 178 | 3.2 | 3.2 | 0.00 | 0.00 | 0.00 | 76 | 1006.8 |
| 20260504090105 | 8 | 198 | 4.8 | 4.8 | 0.00 | 0.00 | 0.00 | 79 | 1006.5 |
| 20260504081535 | 8 | 104 | 0.0 | 0.0 | 0.00 | 0.00 | 0.00 | 81 | 1007.0 |
| 20260504081031 | 8 | 131 | 0.0 | 0.0 | 0.00 | 0.00 | 0.00 | 81 | 1007.0 |
| 20260504080527 | 8 | 99 | 0.0 | 0.0 | 0.00 | 0.00 | 0.00 | 81 | 1007.2 |
| 20260504050334 | 8 | 106 | 0.0 | 0.0 | 0.00 | 0.00 | 0.00 | 80 | 1009.1 |
| 20260504045831 | 8 | 89 | 0.0 | 0.0 | 0.00 | 0.00 | 0.00 | 80 | 1008.9 |
| 20260504045326 | 8 | 123 | 0.0 | 0.0 | 0.00 | 0.00 | 0.00 | 79 | 1009.0 |
| 20260504044823 | 8 | 142 | 1.6 | 3.2 | 0.00 | 0.00 | 0.00 | 79 | 1009.3 |
| 20260504044321 | 8 | 105 | 0.0 | 0.0 | 0.00 | 0.00 | 0.00 | 78 | 1009.1 |
| 20260504043818 | 8 | 122 | 0.0 | 0.0 | 0.00 | 0.00 | 0.00 | 78 | 1009.3 |
| 20260504043315 | 8 | 153 | 3.2 | 3.2 | 0.00 | 0.00 | 0.00 | 78 | 1009.3 |
| 20260504042812 | 8 | 122 | 1.6 | 1.6 | 0.00 | 0.00 | 0.00 | 78 | 1009.0 |
| 20260504042308 | 9 | 102 | 0.0 | 0.0 | 0.00 | 0.00 | 0.00 | 78 | 1009.2 |
| 20260504041805 | 9 | 135 | 0.0 | 0.0 | 0.00 | 0.00 | 0.00 | 78 | 1009.2 |
| 20260504041301 | 8 | 130 | 1.6 | 1.6 | 0.00 | 0.00 | 0.00 | 78 | 1009.4 |
| 20260504040757 | 8 | 111 | 3.2 | 3.2 | 0.00 | 0.00 | 0.00 | 78 | 1009.5 |
| 20260504040255 | 8 | 114 | 0.0 | 0.0 | 0.00 | 0.00 | 0.00 | 78 | 1009.4 |
| 20260504035750 | 8 | 136 | 0.0 | 1.6 | 0.00 | 0.00 | 0.00 | 78 | 1009.3 |
| 20260504035248 | 8 | 104 | 0.0 | 0.0 | 0.00 | 0.00 | 0.00 | 78 | 1009.4 |
| 20260504034745 | 8 | 111 | 1.6 | 1.6 | 0.00 | 0.00 | 0.00 | 78 | 1009.5 |
| 20260504034242 | 8 | 106 | 0.0 | 0.0 | 0.00 | 0.00 | 0.00 | 78 | 1009.5 |
| 20260504033740 | 9 | 109 | 0.0 | 0.0 | 0.00 | 0.00 | 0.00 | 78 | 1009.9 |
| 20260504033237 | 9 | 102 | 0.0 | 1.6 | 0.00 | 0.00 | 0.00 | 78 | 1009.7 |
| 20260504032734 | 9 | 131 | 1.6 | 3.2 | 0.00 | 0.00 | 0.00 | 78 | 1009.8 |
| 20260504032231 | 9 | 113 | 0.0 | 0.0 | 0.00 | 0.00 | 0.00 | 77 | 1009.6 |
| 20260504031728 | 9 | 164 | 3.2 | 4.8 | 0.00 | 0.00 | 0.00 | 78 | 1009.9 |
| 20260504031226 | 9 | 183 | 0.0 | 0.0 | 0.00 | 0.00 | 0.00 | 78 | 1010.0 |
| 20260504030721 | 9 | 120 | 1.6 | 1.6 | 0.00 | 0.00 | 0.00 | 78 | 1009.8 |
| 20260504030219 | 8 | 129 | 3.2 | 3.2 | 0.00 | 0.00 | 0.00 | 79 | 1009.9 |
| 20260504025715 | 8 | 135 | 3.2 | 3.2 | 0.00 | 0.00 | 0.00 | 79 | 1010.1 |
| 20260504025212 | 8 | 111 | 0.0 | 0.0 | 0.00 | 0.00 | 0.00 | 81 | 1010.2 |
| 20260504024709 | 8 | 144 | 1.6 | 3.2 | 0.00 | 0.00 | 0.00 | 81 | 1010.1 |
| 20260504024205 | 8 | 104 | 1.6 | 1.6 | 0.00 | 0.00 | 0.00 | 81 | 1010.2 |
| 20260504023702 | 8 | 104 | 0.0 | 0.0 | 0.00 | 0.00 | 0.00 | 81 | 1010.2 |
| 20260504023158 | 8 | 59 | 1.6 | 1.6 | 0.00 | 0.00 | 0.00 | 81 | 1010.3 |
| 20260504022654 | 8 | 114 | 0.0 | 0.0 | 0.00 | 0.00 | 0.00 | 80 | 1010.2 |
| 20260504022150 | 8 | 138 | 1.6 | 1.6 | 0.00 | 0.00 | 0.00 | 80 | 1010.2 |
| 20260504021648 | 8 | 111 | 1.6 | 1.6 | 0.00 | 0.00 | 0.00 | 80 | 1010.3 |
| 20260504021145 | 9 | 126 | 3.2 | 3.2 | 0.00 | 0.00 | 0.00 | 80 | 1010.4 |
| 20260504020642 | 9 | 126 | 1.6 | 1.6 | 0.00 | 0.00 | 0.00 | 79 | 1010.4 |
| 20260504020138 | 9 | 124 | 0.0 | 0.0 | 0.00 | 0.00 | 0.00 | 79 | 1010.5 |
| 20260504015635 | 9 | 94 | 3.2 | 4.8 | 0.00 | 0.00 | 0.00 | 79 | 1010.3 |
| 20260504015131 | 9 | 168 | 3.2 | 3.2 | 0.00 | 0.00 | 0.00 | 79 | 1010.2 |
| 20260504014627 | 9 | 166 | 1.6 | 1.6 | 0.00 | 0.00 | 0.00 | 79 | 1010.3 |
| 20260504014124 | 9 | 183 | 3.2 | 3.2 | 0.00 | 0.00 | 0.00 | 78 | 1010.2 |
| 20260504013622 | 9 | 106 | 1.6 | 1.6 | 0.00 | 0.00 | 0.00 | 78 | 1010.3 |
| 20260504013119 | 9 | 130 | 0.0 | 1.6 | 0.00 | 0.00 | 0.00 | 78 | 1010.2 |
| 20260504012616 | 9 | 149 | 4.8 | 8.0 | 0.00 | 0.00 | 0.00 | 78 | 1010.3 |
| 20260504012114 | 10 | 193 | 3.2 | 3.2 | 0.00 | 0.00 | 0.00 | 77 | 1010.2 |
| 20260504011610 | 10 | 159 | 1.6 | 3.2 | 0.00 | 0.00 | 0.00 | 77 | 1010.4 |
| 20260504011107 | 10 | 185 | 1.6 | 8.0 | 0.00 | 0.00 | 0.00 | 77 | 1010.2 |
| 20260504010602 | 10 | 125 | 1.6 | 1.6 | 0.00 | 0.00 | 0.00 | 77 | 1010.3 |
| 20260504010058 | 10 | 134 | 3.2 | 3.2 | 0.00 | 0.00 | 0.00 | 77 | 1010.3 |
| 20260504005555 | 10 | 116 | 8.0 | 12.9 | 0.00 | 0.00 | 0.00 | 76 | 1010.4 |
| 20260504005053 | 10 | 102 | 0.0 | 0.0 | 0.00 | 0.00 | 0.00 | 76 | 1010.3 |
| 20260504004550 | 10 | 131 | 3.2 | 4.8 | 0.00 | 0.00 | 0.00 | 76 | 1010.4 |
| 20260504004047 | 10 | 162 | 4.8 | 4.8 | 0.00 | 0.00 | 0.00 | 76 | 1010.5 |
| 20260504003543 | 10 | 116 | 4.8 | 4.8 | 0.00 | 0.00 | 0.00 | 76 | 1010.4 |
| 20260504003040 | 10 | 108 | 4.8 | 4.8 | 0.00 | 0.00 | 0.00 | 75 | 1010.5 |
| 20260504002537 | 10 | 119 | 3.2 | 3.2 | 0.00 | 0.00 | 0.00 | 75 | 1010.5 |
| 20260504002035 | 10 | 157 | 3.2 | 4.8 | 0.00 | 0.00 | 0.00 | 76 | 1010.5 |
| 20260504001532 | 10 | 179 | 1.6 | 1.6 | 0.00 | 0.00 | 0.00 | 77 | 1010.6 |
| 20260504001028 | 10 | 135 | 4.8 | 4.8 | 0.00 | 0.00 | 0.00 | 76 | 1010.6 |
| 20260504000525 | 10 | 123 | 3.2 | 3.2 | 0.00 | 0.00 | 0.00 | 77 | 1010.5 |
| 20260504000023 | 10 | 142 | 4.8 | 4.8 | 0.00 | 0.00 | 0.00 | 77 | 1010.7 |
| 20260503235521 | 10 | 99 | 3.2 | 3.2 | 0.00 | 0.00 | 0.00 | 77 | 1010.9 |
| 20260503235017 | 10 | 139 | 4.8 | 4.8 | 0.00 | 0.00 | 0.00 | 76 | 1011.1 |
| 20260503234515 | 10 | 129 | 3.2 | 3.2 | 0.00 | 0.00 | 0.00 | 76 | 1011.0 |
| 20260503234014 | 10 | 134 | 1.6 | 1.6 | 0.00 | 0.00 | 0.00 | 76 | 1010.7 |
| 20260503233509 | 10 | 108 | 8.0 | 9.7 | 0.00 | 0.00 | 0.00 | 76 | 1011.1 |
| 20260503233006 | 10 | 169 | 3.2 | 3.2 | 0.00 | 0.00 | 0.00 | 75 | 1011.1 |
| 20260503232503 | 10 | 157 | 6.4 | 9.7 | 0.00 | 0.00 | 0.00 | 75 | 1011.0 |
| 20260503232000 | 10 | 101 | 4.8 | 4.8 | 0.00 | 0.00 | 0.00 | 75 | 1011.0 |
| 20260503231458 | 10 | 119 | 4.8 | 8.0 | 0.00 | 0.00 | 0.00 | 75 | 1011.0 |
| 20260503230954 | 10 | 150 | 4.8 | 8.0 | 0.00 | 0.00 | 0.00 | 75 | 1011.2 |
| 20260503230451 | 10 | 139 | 6.4 | 8.0 | 0.00 | 0.00 | 0.00 | 75 | 1011.3 |
| 20260503225948 | 10 | 213 | 3.2 | 3.2 | 0.00 | 0.00 | 0.00 | 76 | 1011.5 |
| 20260503225445 | 10 | 118 | 6.4 | 9.7 | 0.00 | 0.00 | 0.00 | 76 | 1011.6 |
| 20260503224940 | 10 | 148 | 6.4 | 8.0 | 0.00 | 0.00 | 0.00 | 76 | 1011.2 |
| 20260503224438 | 10 | 148 | 3.2 | 3.2 | 0.00 | 0.00 | 0.00 | 77 | 1011.5 |
| 20260503223936 | 10 | 95 | 3.2 | 4.8 | 0.00 | 0.00 | 0.00 | 76 | 1011.3 |
| 20260503223433 | 10 | 142 | 8.0 | 9.7 | 0.00 | 0.00 | 0.00 | 76 | 1011.4 |
| 20260503222928 | 10 | 129 | 3.2 | 3.2 | 0.00 | 0.00 | 0.00 | 76 | 1011.6 |
| 20260503222427 | 10 | 162 | 3.2 | 3.2 | 0.00 | 0.00 | 0.00 | 76 | 1011.5 |
| 20260503221925 | 10 | 202 | 8.0 | 9.7 | 0.00 | 0.00 | 0.00 | 76 | 1011.8 |
| 20260503221423 | 10 | 145 | 4.8 | 4.8 | 0.00 | 0.00 | 0.00 | 77 | 1011.8 |
| 20260503220920 | 10 | 125 | 3.2 | 4.8 | 0.00 | 0.00 | 0.00 | 76 | 1011.9 |
| 20260503220416 | 10 | 149 | 1.6 | 3.2 | 0.00 | 0.00 | 0.00 | 76 | 1011.7 |
| 20260503215913 | 10 | 144 | 1.6 | 1.6 | 0.00 | 0.00 | 0.00 | 76 | 1011.8 |
| 20260503215410 | 10 | 136 | 3.2 | 4.8 | 0.00 | 0.00 | 0.00 | 76 | 1011.7 |
| 20260503214908 | 10 | 121 | 4.8 | 4.8 | 0.00 | 0.00 | 0.00 | 76 | 1012.1 |
| 20260503214405 | 10 | 153 | 6.4 | 8.0 | 0.00 | 0.00 | 0.00 | 77 | 1011.8 |
| 20260503213902 | 10 | 98 | 4.8 | 8.0 | 0.00 | 0.00 | 0.00 | 77 | 1012.1 |
| 20260503213400 | 10 | 194 | 8.0 | 11.3 | 0.00 | 0.00 | 0.00 | 77 | 1012.1 |
| 20260503212856 | 10 | 172 | 6.4 | 8.0 | 0.00 | 0.00 | 0.00 | 77 | 1012.2 |
| 20260503212354 | 10 | 133 | 3.2 | 3.2 | 0.00 | 0.00 | 0.00 | 78 | 1012.2 |
| 20260503211851 | 10 | 198 | 4.8 | 8.0 | 0.00 | 0.00 | 0.00 | 78 | 1012.6 |
| 20260503211348 | 10 | 183 | 4.8 | 4.8 | 0.00 | 0.00 | 0.00 | 79 | 1012.8 |
| 20260503210843 | 10 | 213 | 8.0 | 12.9 | 0.00 | 0.00 | 0.00 | 78 | 1012.9 |
| 20260503210341 | 10 | 229 | 14.5 | 14.5 | 0.00 | 0.00 | 0.00 | 75 | 1013.1 |
| 20260503205835 | 10 | 231 | 9.7 | 12.9 | 0.00 | 0.00 | 0.00 | 73 | 1013.3 |
| 20260503205332 | 11 | 204 | 11.3 | 14.5 | 0.00 | 0.00 | 0.00 | 70 | 1013.5 |
| 20260503204829 | 11 | 234 | 12.9 | 17.7 | 0.00 | 0.00 | 0.00 | 69 | 1013.7 |
| 20260503204326 | 11 | 210 | 11.3 | 16.1 | 0.00 | 0.00 | 0.00 | 68 | 1013.6 |
| 20260503203823 | 11 | 223 | 14.5 | 22.5 | 0.00 | 0.00 | 0.00 | 67 | 1013.6 |
| 20260503203321 | 11 | 262 | 14.5 | 22.5 | 0.00 | 0.00 | 0.00 | 65 | 1013.7 |
| 20260503202818 | 11 | 185 | 8.0 | 9.7 | 0.00 | 0.00 | 0.00 | 66 | 1013.8 |
| 20260503202316 | 11 | 256 | 8.0 | 11.3 | 0.00 | 0.00 | 0.00 | 64 | 1013.6 |
| 20260503201814 | 12 | 264 | 11.3 | 16.1 | 0.00 | 0.00 | 0.00 | 62 | 1013.8 |
| 20260503201310 | 12 | 214 | 8.0 | 11.3 | 0.00 | 0.00 | 0.00 | 61 | 1013.8 |
| 20260503200808 | 12 | 281 | 12.9 | 17.7 | 0.00 | 0.00 | 0.00 | 59 | 1013.8 |
| 20260503200303 | 12 | 276 | 11.3 | 17.7 | 0.00 | 0.00 | 0.00 | 58 | 1013.7 |
| 20260503195801 | 12 | 316 | 14.5 | 20.9 | 0.00 | 0.00 | 0.00 | 56 | 1013.6 |
| 20260503195257 | 13 | 300 | 17.7 | 22.5 | 0.00 | 0.00 | 0.00 | 53 | 1013.7 |
| 20260503194755 | 14 | 238 | 3.2 | 3.2 | 0.00 | 0.00 | 0.00 | 48 | 1013.2 |
| 20260503194250 | 15 | 265 | 20.9 | 35.4 | 0.00 | 0.00 | 0.00 | 46 | 1013.3 |
| 20260503193747 | 15 | 199 | 11.3 | 16.1 | 0.00 | 0.00 | 0.00 | 48 | 1013.1 |
| 20260503193243 | 15 | 202 | 20.9 | 25.7 | 0.00 | 0.00 | 0.00 | 45 | 1013.1 |
| 20260503192739 | 15 | 208 | 11.3 | 12.9 | 0.00 | 0.00 | 0.00 | 48 | 1013.4 |
| 20260503192234 | 15 | 210 | 12.9 | 16.1 | 0.00 | 0.00 | 0.00 | 44 | 1013.5 |
| 20260503191731 | 15 | 237 | 8.0 | 11.3 | 0.00 | 0.00 | 0.00 | 46 | 1013.4 |
| 20260503191228 | 15 | 206 | 12.9 | 20.9 | 0.00 | 0.00 | 0.00 | 45 | 1013.4 |
| 20260503190725 | 15 | 219 | 11.3 | 12.9 | 0.00 | 0.00 | 0.00 | 45 | 1013.5 |
| 20260503190222 | 15 | 227 | 16.1 | 17.7 | 0.00 | 0.00 | 0.00 | 45 | 1013.6 |
| 20260503185719 | 15 | 219 | 9.7 | 14.5 | 0.00 | 0.00 | 0.00 | 45 | 1013.5 |
| 20260503185214 | 15 | 209 | 14.5 | 16.1 | 0.00 | 0.00 | 0.00 | 41 | 1013.6 |
| 20260503184709 | 15 | 236 | 14.5 | 24.1 | 0.00 | 0.00 | 0.00 | 44 | 1013.6 |
| 20260503184206 | 15 | 189 | 14.5 | 20.9 | 0.00 | 0.00 | 0.00 | 42 | 1013.8 |
| 20260503183702 | 15 | 279 | 6.4 | 8.0 | 0.00 | 0.00 | 0.00 | 45 | 1013.8 |
| 20260503183200 | 15 | 223 | 14.5 | 22.5 | 0.00 | 0.00 | 0.00 | 41 | 1013.6 |
| 20260503182658 | 15 | 206 | 16.1 | 22.5 | 0.00 | 0.00 | 0.00 | 43 | 1013.8 |
| 20260503182156 | 15 | 240 | 14.5 | 17.7 | 0.00 | 0.00 | 0.00 | 43 | 1014.0 |
| 20260503181652 | 15 | 225 | 12.9 | 14.5 | 0.00 | 0.00 | 0.00 | 41 | 1013.8 |
| 20260503181149 | 15 | 275 | 11.3 | 17.7 | 0.00 | 0.00 | 0.00 | 42 | 1014.1 |
| 20260503180646 | 15 | 220 | 14.5 | 20.9 | 0.00 | 0.00 | 0.00 | 43 | 1014.3 |
| 20260503180144 | 15 | 244 | 12.9 | 16.1 | 0.00 | 0.00 | 0.00 | 40 | 1014.2 |
| 20260503175641 | 15 | 228 | 14.5 | 16.1 | 0.00 | 0.00 | 0.00 | 39 | 1014.3 |
| 20260503175138 | 15 | 274 | 8.0 | 14.5 | 0.00 | 0.00 | 0.00 | 40 | 1014.4 |
| 20260503174634 | 15 | 214 | 20.9 | 32.2 | 0.00 | 0.00 | 0.00 | 42 | 1014.5 |
| 20260503174132 | 15 | 27 | 9.7 | 11.3 | 0.00 | 0.00 | 0.00 | 40 | 1014.4 |
| 20260503173626 | 15 | 156 | 11.3 | 20.9 | 0.00 | 0.00 | 0.00 | 43 | 1014.5 |
| 20260503173123 | 16 | 225 | 16.1 | 20.9 | 0.00 | 0.00 | 0.00 | 37 | 1014.5 |
| 20260503172620 | 15 | 226 | 9.7 | 11.3 | 0.00 | 0.00 | 0.00 | 42 | 1014.6 |
| 20260503172117 | 15 | 218 | 17.7 | 22.5 | 0.00 | 0.00 | 0.00 | 37 | 1014.6 |
| 20260503171609 | 15 | 204 | 16.1 | 24.1 | 0.00 | 0.00 | 0.00 | 38 | 1014.8 |
| 20260503171106 | 15 | 245 | 9.7 | 12.9 | 0.00 | 0.00 | 0.00 | 40 | 1014.9 |
| 20260503170603 | 15 | 314 | 4.8 | 4.8 | 0.00 | 0.00 | 0.00 | 40 | 1014.9 |
| 20260503150954 | 13 | 245 | 4.8 | 8.0 | 0.00 | 0.00 | 0.00 | 48 | 1016.2 |
| 20260503150451 | 13 | 253 | 4.8 | 8.0 | 0.00 | 0.00 | 0.00 | 47 | 1016.0 |